STARLINK-35244

Satellite information

Favourite Embed

Satellite Type and Status

PAYLOADIN ORBIT

Key statistics

Satellite STARLINK-35244 at a glance.

Uptime

25

Days in orbit

Revolutions

≈ 15.4

Per day

Orbit

LEO

Low Earth Orbit

Inclination

53.2

Latest

Satellite identification and parameters

Extended collection of information and parameters for STARLINK-35244.

Object identification

Identified? True

Debris? False

Object name: STARLINK-35244

International designator: 2025-221G

Object number (NORAD): 65829

Object ID (CCSDS): 65829

Country: UNITED STATES OF AMERICA (US)

Current information (Y/N): Y

Orbital parameters

Period: 93.528 minutes

Inclination: 53.1598 deg

SMA: 6825.31 km

Apoapsis: 448.144 km

Periapsis: 446.206 km

RAAN: 7.9171 deg

Eccentricy: 0.00014202

Argument of periapsis: 97.323 deg

Mean anomaly: 262.7936 deg

Mean motion: 15.3963997 rev/day

Mean motion (dot): 0.00080282 rev/day2

B* drag term: 0.0019946467 1/REarth

Two-line elements (TLE)

Creation date: Oct. 24, 2025, 2:48 a.m.

Reference frame: TEME

Reference center: EARTH

Epoch: Oct. 23, 2025, 4:39 p.m. UTC

TLE line 0: 0 STARLINK-35244

TLE line 1: 1 65829U 25221G 25296.69398090 .00080282 00000-0 19946-2 0 9991

TLE line 2: 2 65829 53.1598 7.9171 0001420 97.3230 262.7936 15.39639970 5023

Live tracking on map

Real-time ground track for satellite STARLINK-35244.

In-orbit conjunctions

There are no conjunctions computed for STARLINK-35244, at the moment. Check back to stay up to date, as we update our databases every day.

Go to all conjunctions

Associated space launch

A batch of 28 satellites for the Starlink mega-constellation - SpaceX's project for space-based Internet communication system.

STARLINK-35244 was lifted into orbit during the mission ‘Falcon 9 Block 5 | Starlink Group 11-20’, on board a Falcon 9 space rocket.

The launch took place on Sept. 29, 2025, 2:04 a.m. from Space Launch Complex 4E.

For more information about the launch, click the button.

Launch to space Falcon 9 Block 5 | Starlink Group 11-20
Falcon 9 Block 5 | Starlink Group 11-20

Agency: SpaceX

Status: Launch Successful

Launch date: Sept. 29, 2025, 2:04 a.m. UTC

Rocket: Falcon 9

Launch pad: Space Launch Complex 4E

Location: Vandenberg SFB, CA, USA

...

Latest news about this satellite

News about space launch
Live coverage: SpaceX to launch 28 Starlink satellites on Falcon 9 rocket from Vandenberg SFB

The Starlink 11-20 mission will see SpaceX’s Falcon 9 rocket fly on a south-easterly trajectory upon departure from Vandenberg Space Force Base. Liftoff from pad 4E is scheduled for 4:32 p.m. PDT (7:32 p.m. EDT / 2332 UTC).

News about space launch
Live coverage: SpaceX to launch 24 Starlink satellites on Falcon 9 rocket from Vandenberg SFB

The Starlink 11-20 mission will see SpaceX’s Falcon 9 rocket fly on a south-easterly trajectory upon departure from Vandenberg Space Force Base. Liftoff from pad 4E is scheduled for 4:32 p.m. PDT (7:32 p.m. EDT / 2332 UTC).

News about space launch
Launch Roundup: Kuiper, Starlink, IMAP headline launch manifest

A busy slate of launches is planned for the last full week of September, including… The post Launch Roundup: Kuiper, Starlink, IMAP headline launch manifest appeared first on NASASpaceFlight.com.


Newsletter sign-up

Weekly statistics, charts and insights to help you stay on top of the space industry.